Weather History for Adana Incirlik AFB, Turkey

Change the Weather History Date:

Friday, February 21, 2014

  Actual Average Record
Temperature  
Mean Temperature 60 °F -  
Max Temperature 75 °F 65 °F 75 °F (2014)
Min Temperature 44 °F 47 °F 30 °F (2008)
Degree Days  
Heating Degree Days 6    
Growing Degree Days 10 (Base 50)    
Moisture  
Dew Point 44 °F    
Average Humidity 69    
Maximum Humidity 100    
Minimum Humidity 15    
Precipitation  
Precipitation 0.00 in - - ()
Sea Level Pressure  
Sea Level Pressure 30.04 in    
Wind  
Wind Speed 4 mph ()    
Max Wind Speed 8 mph    
Max Gust Speed -    
Visibility 3.3 miles    
Events      
Averages and records for this station are not official NWS values.
T = Trace of Precipitation, MM = Missing Value Source: Averaged Metar Reports

Daily Weather History Graph

Daily Weather History Graph

Search for Another Location

Airport:

Trip Planner

Search our weather history database for the weather conditions in past years. The results will help you decide how hot, cold, wet, or windy it might be!

Date:

Astronomy

Feb. 21, 2014 Rise Set
Actual Time 6:20 AM EET 5:24 PM EET
Civil Twilight 5:53 AM EET 5:50 PM EET
Nautical Twilight 5:23 AM EET 6:20 PM EET
Astronomical Twilight 4:53 AM EET 6:50 PM EET
Moon 11:48 PM EET (2/21) 9:38 AM EET (2/21)
Length of Visible Light 11h 56m
Length of Day
11h 04m
Waning Gibbous, 64% of the Moon is Illuminated
Feb 21
Waning Gibbous
Feb 22
Last Quarter
Mar 1
New
Mar 8
First Quarter
Mar 16
Full

Hourly Weather History & Observations

Time (EET) Temp. Windchill Dew Point Humidity Pressure Visibility Wind Dir Wind Speed Gust Speed Precip Events Conditions
12:20 AM 46.4 °F 42.9 °F 44.6 °F 93% 30.12 in 2.5 mi NNE 6.9 mph - N/A   Mist
12:50 AM 44.6 °F 43.1 °F 44.6 °F 100% 30.12 in 2.5 mi NE 3.5 mph - N/A   Mist
1:20 AM 46.4 °F 44.3 °F 44.6 °F 93% 30.12 in - NE 4.6 mph - N/A   Mist
1:50 AM 46.4 °F 44.3 °F 46.4 °F 100% 30.12 in - NE 4.6 mph - N/A   Mist
2:00 AM 47 °F - 46 °F 93% 30.13 in 2 mi NE 4.6 mph - -   Mist
2:20 AM 44.6 °F 41.4 °F 44.6 °F 100% 30.12 in - NNE 5.8 mph - N/A   Mist
2:50 AM 44.6 °F 43.1 °F 44.6 °F 100% 30.12 in - NNE 3.5 mph - N/A   Mist
3:20 AM 44.6 °F 43.1 °F 44.6 °F 100% 30.09 in - North 3.5 mph - N/A   Mist
3:50 AM 44.6 °F - 44.6 °F 100% 30.09 in 2.5 mi NW 2.3 mph - N/A   Mist
4:20 AM 46.4 °F - 44.6 °F 93% 30.09 in 2.5 mi NNW 2.3 mph - N/A   Mist
4:50 AM 44.6 °F 42.2 °F 42.8 °F 93% 30.09 in 2.5 mi NE 4.6 mph - N/A   Mist
5:00 AM 44 °F - 43 °F 95% 30.10 in 2 mi NE 4.6 mph - -   Mist
5:20 AM 44.6 °F 40.2 °F 42.8 °F 93% 30.09 in 2.5 mi NE 8.1 mph - N/A   Mist
5:50 AM 44.6 °F - 42.8 °F 93% 30.09 in 2.5 mi North 2.3 mph - N/A   Mist
6:20 AM 46.4 °F 45.2 °F 44.6 °F 93% 30.09 in 2.5 mi NNW 3.5 mph - N/A   Mist
6:50 AM 46.4 °F 45.2 °F 44.6 °F 93% 30.09 in 1.7 mi NW 3.5 mph - N/A   Mist
7:20 AM 46.4 °F 44.3 °F 44.6 °F 93% 30.12 in 1.7 mi NW 4.6 mph - N/A   Mist
7:50 AM 50.0 °F - 48.2 °F 94% 30.12 in 2.5 mi NW 3.5 mph - N/A   Mist
8:00 AM 49 °F - 43 °F 73% 30.12 in 2 mi NW 3.5 mph - -   Mist
8:20 AM 53.6 °F - 46.4 °F 77% 30.12 in 3.7 mi NW 4.6 mph - N/A   Unknown
8:50 AM 55.4 °F - 53.6 °F 94% 30.12 in - North 2.3 mph - N/A   Clear
9:20 AM 59.0 °F - 53.6 °F 82% 30.09 in - North 2.3 mph - N/A   Clear
9:50 AM 64.4 °F - 51.8 °F 64% 30.09 in - East 2.3 mph - N/A   Clear
10:20 AM 66.2 °F - 50.0 °F 56% 30.09 in - South 2.3 mph - N/A   Clear
10:50 AM 68.0 °F - 50.0 °F 52% 30.09 in - SSW 2.3 mph - N/A   Clear
11:00 AM 67 °F - 49 °F 42% 30.09 in 6 mi SSW 2.3 mph - -  
11:20 AM 68.0 °F - 48.2 °F 49% 30.06 in - NNW 2.3 mph - N/A   Clear
11:50 AM 69.8 °F - 46.4 °F 43% 30.06 in - East 1.2 mph - N/A   Clear
12:20 PM 71.6 °F - 41.0 °F 33% 30.04 in - South 2.3 mph - N/A   Clear
12:50 PM 73.4 °F - 37.4 °F 27% 30.04 in - ESE 4.6 mph - N/A   Clear
1:20 PM 73.4 °F - 33.8 °F 23% 30.01 in - WNW 2.3 mph - N/A   Clear
1:50 PM 73.4 °F - 35.6 °F 25% 30.01 in - NW 2.3 mph - N/A   Clear
2:00 PM 73 °F - 36 °F 16% 30.01 in 6 mi NW 2.3 mph - -  
2:20 PM 73.4 °F - 37.4 °F 27% 30.01 in - West 3.5 mph - N/A   Clear
2:50 PM 75.2 °F - 37.4 °F 25% 29.98 in - NE 2.3 mph - N/A   Clear
3:20 PM 75.2 °F - 37.4 °F 25% 29.98 in - East 2.3 mph - N/A   Clear
3:50 PM 75.2 °F - 35.6 °F 24% 29.98 in - South 4.6 mph - N/A   Clear
4:20 PM 73.4 °F - 35.6 °F 25% 29.98 in - SSW 3.5 mph - N/A   Clear
4:50 PM 71.6 °F - 33.8 °F 25% 29.98 in - SSE 2.3 mph - N/A   Clear
5:00 PM 72 °F - 34 °F 15% 29.99 in 6 mi SSE 2.3 mph - -   Clear
5:20 PM 69.8 °F - 35.6 °F 28% 29.98 in - SSE 2.3 mph - N/A   Clear
5:50 PM 64.4 °F - 50.0 °F 59% 29.98 in - SW 6.9 mph - N/A   Clear
6:20 PM 62.6 °F - 50.0 °F 63% 29.98 in - WSW 4.6 mph - N/A   Clear
6:50 PM 62.6 °F - 50.0 °F 63% 29.98 in - West 2.3 mph - N/A   Clear
7:20 PM 55.4 °F - 46.4 °F 72% 29.98 in - NNE 3.5 mph - N/A   Clear
7:50 PM 53.6 °F - 46.4 °F 77% 29.98 in - ENE 6.9 mph - N/A   Clear
8:00 PM 53 °F - 46 °F 69% 29.98 in 6 mi ENE 6.9 mph - -  
8:20 PM 51.8 °F - 46.4 °F 82% 29.98 in - NNE 8.1 mph - N/A   Clear
8:50 PM 51.8 °F - 46.4 °F 82% 29.98 in - ENE 8.1 mph - N/A   Clear
9:20 PM 50.0 °F - 46.4 °F 87% 29.98 in - NE 5.8 mph - N/A   Clear
9:50 PM 50.0 °F - 46.4 °F 87% 29.98 in - North 3.5 mph - N/A   Clear
10:20 PM 50.0 °F - 46.4 °F 87% 29.98 in - North 2.3 mph - N/A   Clear
10:50 PM 51.8 °F - 48.2 °F 88% 29.98 in - North 1.2 mph - N/A   Clear
11:00 PM 52 °F - 48 °F 82% 29.97 in 6 mi North 1.2 mph - -  
11:20 PM 50.0 °F - 46.4 °F 87% 29.95 in - NE 6.9 mph - N/A   Clear
11:50 PM 48.2 °F - 46.4 °F 93% 29.95 in - NNE 5.8 mph - N/A   Clear